Hourly Weather Al Hudaydah

Today, 24 November, Tuesday

Time Temperature Precipitation Wind Pressure Humidity
00:00 +29°C° 0 mm 1 mps 756 mmHg 79%
01:00 +29°C° 0.1 mm 1 mps 755 mmHg 80%
02:00 +28°C° 0.1 mm 1 mps 754 mmHg 81%
03:00 +28°C° 0 mm 1 mps 754 mmHg 82%
04:00 +28°C° 0.1 mm 1 mps 754 mmHg 83%
05:00 +28°C° 0.1 mm 1 mps 755 mmHg 84%
06:00 +28°C° 0.1 mm 1 mps 755 mmHg 85%
07:00 +28°C° 0 mm 1 mps 755 mmHg 81%
08:00 +29°C° 0 mm 1 mps 755 mmHg 77%
09:00 +30°C° 0 mm 1 mps 755 mmHg 72%
10:00 +31°C° 0.1 mm 2 mps 755 mmHg 68%
11:00 +33°C° 0.1 mm 3 mps 755 mmHg 64%
12:00 +34°C° 0.1 mm 4 mps 754 mmHg 60%
13:00 +34°C° 0.2 mm 4 mps 754 mmHg 59%
14:00 +34°C° 0.2 mm 4 mps 753 mmHg 58%
15:00 +34°C° 0.2 mm 4 mps 752 mmHg 58%
16:00 +33°C° 0 mm 4 mps 752 mmHg 61%
17:00 +31°C° 0 mm 3 mps 753 mmHg 64%
18:00 +30°C° 0 mm 3 mps 753 mmHg 68%
19:00 +30°C° 0.1 mm 2 mps 754 mmHg 70%
20:00 +30°C° 0.1 mm 2 mps 754 mmHg 72%
21:00 +29°C° 0.1 mm 1 mps 754 mmHg 74%
22:00 +29°C° 0.2 mm 1 mps 754 mmHg 75%
23:00 +29°C° 0.2 mm 1 mps 754 mmHg 75%

Tomorrow, 25 November, Wednesday

Time Temperature Precipitation Wind Pressure Humidity
00:00 +29°C° 0.2 mm 1 mps 754 mmHg 75%
01:00 +29°C° 0.1 mm 1 mps 754 mmHg 76%
02:00 +28°C° 0.1 mm 2 mps 753 mmHg 76%
03:00 +28°C° 0.1 mm 2 mps 753 mmHg 76%
04:00 +28°C° 0.1 mm 2 mps 754 mmHg 77%
05:00 +28°C° 0.1 mm 1 mps 754 mmHg 78%
06:00 +28°C° 0.1 mm 1 mps 754 mmHg 79%
07:00 +29°C° 0 mm 1 mps 755 mmHg 75%
08:00 +30°C° 0 mm 1 mps 755 mmHg 70%
09:00 +31°C° 0 mm 1 mps 755 mmHg 66%
10:00 +32°C° 0 mm 2 mps 755 mmHg 60%
11:00 +34°C° 0 mm 2 mps 754 mmHg 54%
12:00 +35°C° 0 mm 3 mps 754 mmHg 48%
13:00 +35°C° 0.2 mm 4 mps 753 mmHg 51%
14:00 +34°C° 0.2 mm 5 mps 752 mmHg 53%
15:00 +33°C° 0.2 mm 5 mps 752 mmHg 56%
16:00 +33°C° 0.4 mm 4 mps 752 mmHg 57%
17:00 +31°C° 0.4 mm 3 mps 752 mmHg 57%
18:00 +31°C° 0.4 mm 3 mps 753 mmHg 58%
19:00 +31°C° 0.2 mm 3 mps 753 mmHg 60%
20:00 +30°C° 0.2 mm 3 mps 753 mmHg 61%
21:00 +30°C° 0.2 mm 3 mps 754 mmHg 63%
22:00 +30°C° 0.4 mm 3 mps 754 mmHg 66%
23:00 +29°C° 0.4 mm 3 mps 753 mmHg 68%

Day after tomorrow, 26 November, Thursday

Time Temperature Precipitation Wind Pressure Humidity
00:00 +29°C° 0.4 mm 3 mps 753 mmHg 71%
01:00 +29°C° 0.1 mm 3 mps 753 mmHg 71%
02:00 +29°C° 0.1 mm 3 mps 753 mmHg 72%
03:00 +29°C° 0.1 mm 3 mps 753 mmHg 72%
04:00 +29°C° 0.1 mm 3 mps 753 mmHg 73%
05:00 +29°C° 0.1 mm 3 mps 753 mmHg 74%
06:00 +28°C° 0.1 mm 3 mps 754 mmHg 74%
07:00 +29°C° 0 mm 3 mps 754 mmHg 70%
08:00 +30°C° 0 mm 3 mps 754 mmHg 66%
09:00 +31°C° 0 mm 3 mps 754 mmHg 62%
10:00 +33°C° 0 mm 4 mps 754 mmHg 58%
11:00 +34°C° 0 mm 4 mps 753 mmHg 54%
12:00 +35°C° 0 mm 4 mps 753 mmHg 50%
13:00 +35°C° 0 mm 5 mps 752 mmHg 49%
14:00 +35°C° 0 mm 5 mps 751 mmHg 49%
15:00 +35°C° 0 mm 5 mps 751 mmHg 48%
16:00 +34°C° 0.1 mm 5 mps 751 mmHg 51%
17:00 +33°C° 0.1 mm 5 mps 751 mmHg 54%
18:00 +32°C° 0.1 mm 4 mps 752 mmHg 57%
19:00 +32°C° 0 mm 4 mps 752 mmHg 60%
20:00 +30°C° 0 mm 4 mps 752 mmHg 62%
21:00 +30°C° 0 mm 4 mps 753 mmHg 65%
22:00 +30°C° 0 mm 4 mps 753 mmHg 66%
23:00 +29°C° 0 mm 4 mps 753 mmHg 68%

27 November, Friday

Time Temperature Precipitation Wind Pressure Humidity
00:00 +29°C° 0 mm 4 mps 753 mmHg 69%
01:00 +29°C° 0 mm 4 mps 753 mmHg 70%
02:00 +29°C° 0 mm 3 mps 752 mmHg 72%
03:00 +28°C° 0 mm 3 mps 752 mmHg 73%
04:00 +28°C° 0 mm 3 mps 753 mmHg 74%
05:00 +28°C° 0 mm 3 mps 753 mmHg 74%
06:00 +28°C° 0 mm 4 mps 753 mmHg 74%
07:00 +29°C° 0 mm 4 mps 754 mmHg 70%
08:00 +30°C° 0 mm 4 mps 754 mmHg 66%
09:00 +30°C° 0 mm 4 mps 755 mmHg 61%
10:00 +32°C° 0 mm 5 mps 754 mmHg 58%
11:00 +33°C° 0 mm 5 mps 753 mmHg 56%
12:00 +34°C° 0 mm 5 mps 753 mmHg 53%
13:00 +34°C° 0 mm 5 mps 753 mmHg 52%
14:00 +34°C° 0 mm 6 mps 752 mmHg 52%
15:00 +34°C° 0 mm 6 mps 752 mmHg 52%
16:00 +33°C° 0 mm 6 mps 752 mmHg 55%
17:00 +32°C° 0 mm 6 mps 752 mmHg 59%
18:00 +30°C° 0 mm 6 mps 753 mmHg 63%
19:00 +30°C° 0 mm 5 mps 753 mmHg 65%
20:00 +29°C° 0 mm 5 mps 754 mmHg 67%
21:00 +29°C° 0 mm 5 mps 754 mmHg 69%
22:00 +29°C° 0 mm 5 mps 754 mmHg 71%
23:00 +29°C° 0 mm 5 mps 754 mmHg 72%

28 November, Saturday

Time Temperature Precipitation Wind Pressure Humidity
00:00 +28°C° 0 mm 4 mps 754 mmHg 74%
01:00 +28°C° 0 mm 4 mps 754 mmHg 75%
02:00 +28°C° 0 mm 4 mps 753 mmHg 76%
03:00 +28°C° 0 mm 3 mps 753 mmHg 77%
04:00 +28°C° 0 mm 3 mps 754 mmHg 78%
05:00 +27°C° 0 mm 3 mps 754 mmHg 78%
06:00 +27°C° 0 mm 3 mps 754 mmHg 79%
07:00 +28°C° 0 mm 4 mps 754 mmHg 74%
08:00 +29°C° 0 mm 4 mps 755 mmHg 70%
09:00 +30°C° 0 mm 5 mps 755 mmHg 66%
10:00 +30°C° 0 mm 5 mps 755 mmHg 63%
11:00 +32°C° 0 mm 5 mps 754 mmHg 60%
12:00 +33°C° 0 mm 5 mps 754 mmHg 57%
13:00 +33°C° 0 mm 5 mps 753 mmHg 56%
14:00 +33°C° 0 mm 5 mps 753 mmHg 55%
15:00 +33°C° 0 mm 4 mps 752 mmHg 54%
16:00 +32°C° 0 mm 5 mps 753 mmHg 58%
17:00 +32°C° 0 mm 5 mps 753 mmHg 61%
18:00 +30°C° 0 mm 5 mps 753 mmHg 64%
19:00 +30°C° 0 mm 5 mps 754 mmHg 66%
20:00 +29°C° 0 mm 5 mps 754 mmHg 69%
21:00 +29°C° 0 mm 5 mps 754 mmHg 72%
22:00 +29°C° 0 mm 5 mps 754 mmHg 72%
23:00 +28°C° 0 mm 5 mps 754 mmHg 73%

29 November, Sunday

Time Temperature Precipitation Wind Pressure Humidity
00:00 +28°C° 0 mm 5 mps 754 mmHg 73%
01:00 +28°C° 0 mm 4 mps 753 mmHg 75%
02:00 +28°C° 0 mm 4 mps 753 mmHg 76%
03:00 +27°C° 0 mm 3 mps 753 mmHg 77%
04:00 +27°C° 0 mm 3 mps 753 mmHg 78%
05:00 +27°C° 0 mm 3 mps 753 mmHg 79%
06:00 +27°C° 0 mm 2 mps 754 mmHg 81%
07:00 +28°C° 0 mm 3 mps 754 mmHg 76%
08:00 +29°C° 0 mm 3 mps 754 mmHg 71%
09:00 +30°C° 0 mm 4 mps 755 mmHg 66%
10:00 +30°C° 0 mm 5 mps 754 mmHg 64%
11:00 +32°C° 0 mm 5 mps 753 mmHg 61%
12:00 +32°C° 0 mm 6 mps 753 mmHg 59%
13:00 +32°C° 0 mm 5 mps 753 mmHg 57%
14:00 +32°C° 0 mm 5 mps 752 mmHg 56%
15:00 +33°C° 0 mm 4 mps 752 mmHg 55%
16:00 +32°C° 0 mm 4 mps 752 mmHg 56%
17:00 +31°C° 0 mm 3 mps 753 mmHg 58%
18:00 +30°C° 0 mm 3 mps 753 mmHg 60%
19:00 +30°C° 0 mm 3 mps 753 mmHg 61%
20:00 +30°C° 0 mm 3 mps 754 mmHg 63%
21:00 +29°C° 0 mm 4 mps 754 mmHg 65%
22:00 +29°C° 0 mm 4 mps 754 mmHg 67%
23:00 +29°C° 0 mm 4 mps 754 mmHg 69%
Show more